Temp
48 48 48 48 47 47 47 47 48 47 44 48 48 47 47 47 47 40 33 37 33 27 30 31 33 25 26 28 23 28 28 28 27 28 26 24 13 16 15 19 20 19 15 10 9 8 15 31 30 30 36 35 35 32
47 47 47 47 47 46 47 46 46 47 46 48 48 48 47 48 47 46 32 37 38 30 28 32 33 35 35 34 29 29 28 27 29 27 25 22 21 15 16 16 24 21 24 18 21 24 33 31 35 36 34 36 35 34
46 46 47 47 46 45 47 46 44 46 46 47 48 48 47 47 47 45 35 34 34 29 28 29 27 36 38 38 40 27 29 32 30 28 24 25 19 21 14 16 19 22 27 23 24 32 32 31 33 34 34 35 35 36
45 46 46 46 46 46 47 47 46 45 46 47 47 47 47 46 45 45 36 37 33 28 23 24 31 27 35 39 38 38 36 33 31 30 25 23 22 26 20 23 22 24 26 20 21 30 32 33 33 35 36 35 35 34
45 45 44 45 45 46 45 45 46 45 44 46 46 46 46 45 45 41 37 38 38 30 22 21 21 28 34 36 34 36 35 32 31 29 27 25 23 25 17 18 15 23 24 25 28 35 36 37 35 36 34 35 35 34
44 44 45 45 45 45 45 45 45 46 44 46 46 45 44 41 41 34 28 35 39 37 26 14 19 20 30 33 33 33 33 32 32 30 28 27 27 25 17 17 26 28 29 33 36 34 34 34 34 37 35 35 34 31
44 44 44 44 44 44 45 45 44 45 44 45 45 45 44 39 35 24 21 30 40 37 26 17 10 20 25 32 32 32 33 32 32 31 29 27 23 27 24 18 31 31 33 34 32 30 35 33 36 35 33 32 27 26
44 44 44 44 44 44 44 44 43 44 43 45 44 44 44 42 36 31 34 39 38 31 28 17 10 14 30 26 27 33 30 31 31 32 29 26 24 22 22 22 29 34 33 30 31 32 40 32 26 31 25 21 22 27
44 44 44 43 43 44 44 42 40 43 44 44 43 41 32 31 28 26 40 40 37 31 21 7 8 8 27 23 28 28 31 26 29 28 26 29 22 24 25 27 24 32 32 36 25 22 20 22 31 32 31 13 20 29
44 43 44 41 44 43 41 43 43 44 44 42 29 18 10 17 37 38 29 27 27 27 26 14 7 9 25 25 24 26 27 26 22 26 25 25 21 15 20 28 34 36 35 27 25 30 17 24 29 31 30 31 30 32
44 44 44 43 43 43 43 42 44 43 37 20 9 10 19 35 25 25 16 21 23 19 19 13 22 16 25 22 24 26 23 22 16 16 18 17 16 21 27 28 36 31 34 33 35 34 25 26 27 32 33 26 24 22
43 43 44 43 42 42 44 44 42 29 19 22 22 21 17 13 11 11 15 19 20 12 18 15 17 23 22 24 25 23 19 22 12 11 13 15 20 25 29 34 39 28 31 30 16 17 13 13 12 14 14 14 13 14
43 44 44 40 43 44 44 43 42 38 32 17 11 9 11 8 9 12 10 15 17 20 20 18 21 23 20 24 24 20 17 17 10 17 11 16 18 18 23 19 14 5 6 7 8 3 2 2 1 -0 5 5 5 6
41 43 43 41 45 44 43 42 40 33 17 8 3 3 4 4 10 16 16 18 22 17 17 23 18 22 25 22 23 18 5 10 16 8 13 17 15 11 8 3 10 8 3 3 2 -1 -1 -2 -0 0 -2 -0 -1 4
40 40 39 40 44 44 42 41 37 21 10 6 5 1 1 10 8 12 16 17 22 23 25 19 19 20 19 15 14 9 10 7 13 15 14 13 10 3 6 3 3 3 0 0 -3 -2 -3 -4 -4 0 -1 -1 -3 -0
41 38 36 41 41 42 40 34 21 10 3 5 8 4 -1 4 10 9 13 17 22 24 25 27 23 20 18 16 15 18 11 11 13 5 9 7 8 3 0 -0 -1 -4 -4 -4 -6 -5 -4 -4 -4 -3 -2 -0 1 -3
39 25 40 41 41 39 38 17 12 9 -0 2 4 -7 9 2 10 4 9 18 22 22 19 20 19 13 13 11 20 19 8 6 3 5 1 -1 -1 0 -1 -2 -1 -2 -3 -5 -5 -4 -4 -5 -5 1 4 2 2 5
22 29 42 42 34 31 14 10 12 12 3 -2 6 7 -1 5 5 5 6 14 18 17 19 17 17 20 19 11 20 16 10 3 1 0 2 -1 -1 -0 -3 -0 -3 -6 -4 -5 -5 -4 -2 1 5 4 1 0 5 8
28 31 41 41 31 18 14 13 14 6 8 -0 -1 -2 -3 5 6 4 4 18 19 19 15 18 17 15 14 14 14 12 10 4 5 8 6 -2 -3 -3 0 0 -0 -0 1 -4 1 1 -0 6 5 6 6 7 7 8
41 41 41 40 34 17 14 15 17 14 13 14 1 6 3 5 2 -3 4 16 11 13 17 11 6 8 11 11 9 7 4 6 3 5 4 4 2 -0 -0 -5 -3 -5 0 -0 5 5 6 7 7 8 8 7 6 5
36 32 39 33 21 19 14 13 15 18 17 16 18 18 11 14 17 16 15 10 14 -3 12 3 1 5 7 3 2 -0 1 -1 -1 3 -1 -2 -1 -4 -4 -0 -1 3 6 4 5 5 6 5 5 6 5 5 5 4
29 37 29 31 25 24 21 22 20 23 20 18 18 20 12 6 15 7 7 2 -6 -3 -5 -2 -2 -2 4 2 -1 -4 -5 -3 -5 -3 -1 -1 -3 -3 -0 0 3 3 4 5 5 5 5 6 6 5 5 4 5 4
33 32 27 27 21 21 18 22 19 20 17 18 19 15 14 9 4 7 -2 -7 -10 -5 -5 -5 -2 -3 -2 -1 -1 -1 -2 -3 -5 -3 1 -0 4 5 3 4 5 5 5 6 7 6 5 6 6 5 4 4 2 1
30 23 20 18 19 16 18 16 19 18 18 16 17 17 12 7 9 0 -7 -14 -10 -9 -5 -4 -5 -3 0 -1 -3 -3 -0 -7 -7 1 5 -0 4 5 6 4 5 7 6 6 5 5 4 3 4 3 2 0 -0 -2
17 13 13 11 13 11 10 12 15 15 14 16 15 15 14 14 2 -4 -7 -9 -10 -8 -5 -1 -1 2 -0 0 -3 -1 2 -1 2 3 4 6 8 7 5 4 4 4 7 4 2 1 0 0 -1 -2 -3 -4 -6 -8
11 4 5 3 4 4 4 6 9 8 10 13 9 9 14 13 9 1 -3 -5 -4 -4 -4 -5 -6 -1 2 4 2 2 3 9 8 4 3 4 3 5 6 5 3 1 4 4 2 -0 -2 -2 -4 -6 -8 -9 -10 -13
8 2 2 3 -0 -2 3 5 6 7 4 1 -1 1 11 5 0 -2 -1 -1 -2 -1 0 0 0 1 3 6 7 7 8 8 6 4 5 5 5 4 4 1 -2 0 2 2 1 -1 -5 -7 -9 -11 -14 -17 -20 -20
2 -0 -2 -4 -4 -2 -2 -0 -1 -3 -3 -3 -2 -6 -2 -4 -4 -4 -2 0 -0 0 1 2 3 4 5 6 7 8 7 8 8 8 7 6 6 4 3 2 2 3 -2 -3 -4 -5 -8 -10 -13 -15 -17 -19 -22 -23
2 -1 -2 -0 -3 -4 -5 -5 -3 -4 -4 -5 -3 -5 -7 -5 -4 -5 -2 -0 1 2 4 5 6 7 6 6 6 6 7 9 8 3 1 -0 -0 -2 2 2 1 -1 -3 -4 -2 -10 -14 -14 -15 -17 -19 -19 -21 -19
-1 -3 -1 -1 -2 -4 -2 -1 -1 -1 -2 -4 -5 -4 -4 -3 -1 1 0 1 1 1 3 3 4 6 5 4 2 2 3 3 3 5 2 -2 -4 -4 -5 -6 -7 -7 -6 -7 -8 -8 -3 -10 -9 -14 -14 -16 -16 -17
-3 -6 -1 -1 -3 2 0 1 0 -2 -1 -2 -1 -3 -5 -3 -1 2 1 1 3 2 3 3 2 3 3 2 2 1 -1 1 1 -0 -2 -5 -7 -10 -10 -11 -12 -12 -11 -11 -11 -12 -12 -14 -16 -17 -19 -20 -22 -20
-4 -1 3 1 -0 0 2 1 1 4 2 2 1 -1 -2 -1 -5 -2 1 1 1 -1 -0 -0 -0 -0 2 3 3 2 1 -2 -5 -6 -9 -9 -12 -13 -12 -12 -12 -10 -11 -12 -13 -14 -16 -17 -18 -19 -21 -24 -25 -26
1 3 4 5 4 4 4 -1 1 1 4 4 1 2 0 1 -5 -3 2 3 0 -1 -1 -1 -1 -0 0 0 0 -1 -1 -3 -2 0 -3 -4 -7 -9 -12 -12 -11 -11 -12 -14 -15 -16 -17 -19 -20 -23 -24 -25 -27 -28
MSLP
1016.01 1015.34 1014.73 1014.07 1013.56 1013.13 1012.65 1012.34 1011.97 1012.04 1012.43 1011.98 1011.88 1012.13 1012.27 1012.37 1012.54 1013.00 1013.33 1013.76 1014.27 1014.06 1013.17 1013.21 1012.80 1012.43 1012.11 1011.83 1012.31 1012.64 1012.20 1011.24 1011.33 1011.42 1012.14 1012.61 1013.53 1014.27 1014.56 1015.14 1015.36 1015.51 1016.81 1018.03 1018.29 1016.83 1013.45 1009.15 1009.92 1009.41 1007.20 1006.71 1006.90 1007.38
1014.97 1014.10 1013.45 1012.71 1012.24 1011.87 1011.35 1011.10 1010.89 1010.67 1010.86 1010.66 1010.68 1010.80 1011.10 1011.15 1011.27 1011.63 1012.28 1012.56 1013.05 1013.63 1013.15 1012.54 1012.02 1011.45 1011.31 1011.34 1011.69 1012.02 1011.90 1012.14 1010.99 1010.59 1011.26 1011.58 1012.64 1013.62 1013.48 1014.72 1014.40 1014.04 1012.69 1013.39 1013.29 1010.93 1008.62 1008.01 1006.82 1006.51 1006.63 1006.78 1006.86 1007.09
1013.74 1012.98 1012.07 1011.32 1010.89 1010.60 1009.96 1009.73 1009.99 1009.52 1009.49 1009.35 1009.35 1009.55 1009.78 1009.91 1009.95 1010.17 1010.54 1011.36 1012.40 1012.70 1012.43 1012.36 1011.41 1009.77 1010.30 1010.47 1010.81 1011.64 1011.42 1011.70 1011.22 1010.37 1009.81 1010.27 1011.14 1011.94 1012.67 1012.70 1012.78 1012.49 1011.70 1011.72 1011.34 1008.28 1007.80 1007.49 1006.91 1006.63 1006.62 1006.51 1006.52 1006.58
1012.28 1011.37 1010.52 1009.82 1009.42 1008.99 1008.60 1008.31 1008.35 1008.46 1008.21 1008.17 1008.27 1008.39 1008.52 1008.53 1008.62 1008.69 1008.94 1009.55 1010.83 1011.36 1011.37 1010.53 1010.08 1009.64 1009.03 1009.46 1010.01 1010.30 1010.19 1010.85 1010.90 1010.80 1010.53 1009.69 1010.17 1009.85 1010.77 1010.47 1010.69 1010.45 1010.78 1010.58 1009.72 1007.60 1007.02 1006.40 1006.06 1005.63 1005.89 1006.13 1006.34 1006.17
1010.74 1009.81 1009.19 1008.40 1007.71 1007.40 1007.50 1007.22 1006.88 1006.93 1007.12 1007.16 1007.25 1007.36 1007.37 1007.34 1007.33 1007.19 1006.87 1007.63 1008.69 1010.25 1009.81 1010.27 1009.84 1008.76 1008.51 1008.48 1008.93 1009.36 1009.67 1009.91 1010.27 1010.37 1009.73 1008.73 1008.78 1009.37 1010.39 1010.44 1009.92 1009.28 1008.89 1008.89 1007.30 1005.77 1005.50 1005.19 1004.95 1005.07 1005.59 1005.72 1005.66 1005.97
1009.07 1008.14 1007.21 1006.44 1005.86 1005.45 1005.27 1005.52 1005.56 1005.59 1006.15 1006.04 1006.38 1006.54 1006.68 1006.78 1006.51 1006.67 1006.57 1007.28 1007.61 1008.74 1009.74 1010.15 1009.29 1008.74 1008.40 1008.21 1008.34 1008.42 1008.87 1009.34 1009.64 1009.14 1008.42 1007.60 1007.19 1007.67 1008.95 1008.62 1007.19 1006.60 1006.41 1005.95 1005.72 1005.14 1005.18 1005.04 1004.90 1004.76 1005.01 1005.14 1004.99 1005.29
1007.41 1006.12 1004.88 1003.87 1003.11 1002.77 1002.79 1003.17 1003.93 1004.42 1005.08 1005.36 1005.66 1005.94 1005.97 1006.30 1006.43 1006.66 1006.50 1005.93 1006.51 1007.95 1008.82 1009.76 1009.70 1008.15 1007.89 1007.91 1007.81 1007.70 1008.04 1007.86 1008.46 1008.15 1007.46 1007.34 1006.89 1006.77 1007.61 1006.89 1005.79 1005.41 1005.19 1005.20 1005.16 1005.48 1004.90 1004.34 1004.10 1004.00 1004.27 1004.33 1004.78 1004.87
1005.66 1003.95 1002.23 1000.52 999.44 998.94 999.55 1000.66 1001.92 1003.19 1004.09 1004.62 1005.16 1005.40 1005.43 1005.66 1006.22 1006.30 1005.74 1006.04 1006.41 1007.25 1008.29 1008.76 1008.56 1008.07 1007.25 1007.33 1007.16 1006.74 1006.39 1006.55 1006.62 1006.28 1006.23 1006.48 1007.00 1007.18 1006.51 1005.47 1004.66 1004.30 1004.27 1004.44 1004.45 1004.20 1003.30 1003.66 1003.96 1003.82 1003.79 1004.10 1004.57 1004.55
1004.24 1002.19 1000.19 998.08 994.94 994.21 996.65 999.13 1000.58 1002.30 1003.47 1004.21 1004.84 1005.27 1005.56 1005.93 1006.30 1006.16 1005.99 1006.15 1006.44 1007.22 1006.75 1007.63 1008.14 1007.52 1006.63 1005.96 1005.43 1006.05 1005.11 1005.67 1005.66 1005.58 1005.78 1005.92 1006.45 1005.57 1004.35 1004.30 1003.90 1003.58 1003.40 1003.34 1003.39 1004.03 1004.24 1004.59 1003.88 1003.75 1003.77 1004.31 1004.60 1003.91
1003.10 1001.63 1000.07 997.02 994.15 994.86 997.38 999.24 1000.91 1002.23 1003.26 1004.35 1005.21 1006.09 1006.29 1006.11 1005.82 1005.76 1006.09 1006.33 1006.34 1005.92 1005.92 1006.24 1006.44 1006.50 1005.79 1005.55 1005.33 1005.38 1004.27 1004.65 1005.50 1005.41 1005.49 1005.41 1004.69 1004.09 1003.61 1002.80 1002.32 1001.55 1002.21 1003.00 1003.84 1004.01 1004.35 1004.25 1003.81 1003.70 1003.77 1003.61 1003.65 1003.31
1002.71 1001.74 1000.94 1000.03 999.08 998.79 999.50 1000.71 1001.56 1002.74 1003.91 1005.00 1006.18 1007.02 1006.26 1005.60 1005.82 1005.99 1006.08 1005.37 1004.28 1003.99 1004.00 1003.93 1004.57 1004.99 1004.91 1004.72 1004.92 1004.39 1003.51 1003.73 1004.80 1005.51 1005.80 1005.54 1005.05 1003.46 1002.63 1002.40 1000.74 1001.75 1001.91 1001.91 1002.35 1002.44 1003.15 1003.50 1003.88 1004.00 1003.46 1003.51 1003.51 1003.38
1002.83 1001.97 1001.51 1001.19 1001.09 1001.00 1001.12 1001.82 1002.74 1003.62 1004.86 1005.14 1005.61 1006.35 1006.67 1006.73 1006.92 1006.82 1005.89 1004.45 1002.92 1002.71 1003.02 1002.78 1003.13 1003.11 1004.26 1004.23 1004.90 1003.69 1003.42 1004.46 1005.33 1005.94 1006.14 1005.17 1003.55 1001.92 1001.84 1001.22 1000.26 1001.38 1001.94 1002.38 1003.20 1003.72 1004.35 1004.62 1004.85 1004.77 1004.53 1004.33 1004.20 1003.68
1003.05 1002.34 1002.13 1002.37 1002.05 1001.94 1002.35 1003.11 1003.49 1004.02 1004.43 1005.66 1006.30 1007.49 1008.04 1007.96 1007.63 1006.99 1005.64 1004.13 1003.06 1002.64 1002.65 1002.34 1002.36 1002.64 1003.93 1003.98 1004.00 1003.01 1003.76 1005.07 1005.69 1005.96 1005.67 1004.42 1002.52 1001.88 1001.60 1002.04 1002.68 1002.68 1003.18 1003.79 1004.33 1004.91 1005.31 1005.70 1005.67 1005.82 1005.39 1005.02 1004.73 1004.45
1003.55 1002.85 1002.78 1002.98 1002.77 1003.12 1003.52 1003.87 1004.24 1004.57 1005.39 1007.64 1008.94 1009.53 1009.58 1008.79 1007.83 1006.84 1006.08 1004.97 1003.13 1002.50 1002.38 1001.79 1002.02 1001.87 1002.95 1003.35 1002.65 1002.82 1005.09 1005.41 1006.35 1007.37 1005.77 1003.91 1003.34 1003.52 1003.37 1003.93 1004.14 1004.79 1004.97 1005.47 1005.88 1006.37 1006.62 1006.69 1006.49 1006.13 1005.92 1005.60 1005.32 1004.72
1004.56 1004.09 1003.78 1003.59 1003.66 1003.96 1004.33 1004.57 1004.77 1005.24 1007.15 1009.37 1009.97 1010.53 1009.97 1008.86 1007.95 1007.18 1006.22 1004.99 1002.98 1001.96 1001.27 1001.28 1001.74 1002.33 1002.76 1003.53 1003.19 1004.38 1006.04 1006.22 1006.14 1005.98 1005.13 1004.99 1004.91 1005.04 1005.35 1005.60 1005.77 1006.19 1006.52 1006.93 1007.38 1007.30 1007.30 1007.22 1006.95 1006.65 1006.15 1005.79 1005.34 1004.78
1005.51 1005.32 1005.04 1004.74 1004.76 1004.75 1005.15 1005.26 1005.65 1006.87 1008.78 1009.94 1010.37 1010.97 1009.93 1009.57 1008.17 1007.12 1005.97 1004.64 1002.49 1001.59 1001.02 1001.11 1001.36 1001.91 1002.35 1002.41 1003.15 1003.81 1004.75 1005.34 1006.07 1006.57 1006.39 1006.35 1006.51 1006.82 1007.08 1006.78 1006.76 1007.02 1007.25 1007.68 1008.04 1008.03 1008.00 1007.84 1007.30 1007.11 1006.55 1006.11 1005.63 1005.18
1005.80 1006.10 1005.75 1005.45 1005.32 1005.54 1005.57 1006.47 1007.46 1008.84 1009.72 1010.92 1010.83 1010.23 1010.18 1009.07 1008.88 1008.02 1007.11 1004.89 1003.10 1002.16 1001.74 1001.42 1001.57 1002.47 1002.43 1002.73 1003.19 1004.14 1005.67 1006.99 1007.56 1007.86 1007.64 1008.18 1008.48 1008.45 1008.15 1008.09 1008.06 1008.03 1008.39 1008.59 1008.69 1008.28 1007.92 1007.41 1007.21 1007.03 1006.91 1006.80 1006.23 1005.81
1006.57 1006.23 1005.64 1005.61 1005.83 1006.00 1006.80 1007.20 1008.77 1009.50 1010.22 1010.55 1010.81 1009.57 1009.17 1008.16 1008.58 1007.66 1006.27 1005.06 1004.65 1004.26 1003.57 1003.39 1003.23 1003.23 1003.90 1004.40 1005.13 1006.23 1007.10 1007.87 1008.18 1008.67 1009.03 1009.07 1008.83 1008.42 1008.41 1008.74 1008.96 1009.04 1008.97 1008.78 1008.44 1008.05 1007.99 1007.80 1007.47 1007.66 1007.46 1007.02 1006.65 1006.38
1006.43 1006.21 1005.83 1005.85 1006.00 1006.82 1007.69 1007.83 1008.06 1009.02 1009.11 1009.20 1009.08 1008.97 1008.77 1008.32 1007.07 1007.08 1006.41 1005.27 1004.60 1004.08 1003.94 1004.40 1005.05 1005.58 1006.11 1006.19 1006.72 1007.49 1008.56 1009.50 1009.67 1009.23 1008.94 1009.09 1009.12 1009.16 1009.15 1008.97 1008.98 1008.89 1008.84 1008.90 1008.72 1008.63 1008.55 1008.30 1008.14 1007.98 1007.90 1007.70 1007.49 1007.50
1005.91 1005.86 1005.83 1005.87 1006.25 1007.25 1007.86 1007.75 1007.67 1007.78 1007.72 1007.49 1007.98 1008.25 1008.03 1008.08 1007.41 1007.36 1007.29 1006.12 1005.77 1005.47 1006.19 1007.54 1008.23 1008.52 1008.20 1008.45 1009.14 1009.79 1009.79 1009.82 1010.07 1009.56 1009.31 1009.30 1009.21 1009.35 1009.65 1009.68 1009.52 1009.25 1009.12 1008.93 1008.84 1008.69 1008.57 1008.67 1008.78 1008.77 1008.66 1008.68 1008.55 1008.84
1005.50 1005.46 1005.55 1005.76 1006.57 1007.08 1007.38 1007.20 1006.98 1006.33 1005.92 1006.29 1006.08 1006.76 1007.54 1007.77 1007.78 1007.94 1007.77 1007.58 1008.19 1009.31 1009.70 1010.88 1010.53 1010.45 1010.34 1010.34 1010.52 1011.00 1011.26 1011.37 1011.40 1011.05 1010.64 1010.22 1010.31 1010.36 1010.30 1009.96 1009.67 1009.47 1009.38 1009.54 1009.58 1009.60 1009.44 1009.69 1010.00 1010.01 1009.86 1010.06 1010.21 1010.31
1005.04 1005.01 1005.38 1005.42 1006.14 1006.46 1006.33 1005.69 1005.71 1005.21 1005.18 1004.95 1005.32 1005.57 1006.38 1007.54 1007.96 1008.37 1008.87 1009.82 1011.50 1012.23 1012.31 1012.59 1012.29 1011.70 1011.43 1011.50 1011.53 1011.07 1010.88 1010.44 1010.31 1010.27 1010.19 1010.31 1010.79 1010.94 1010.89 1010.66 1010.23 1010.31 1010.31 1010.45 1010.42 1010.50 1010.65 1010.80 1010.86 1011.01 1011.18 1011.54 1011.73 1011.92
1004.58 1004.82 1005.08 1005.38 1005.96 1005.68 1005.22 1004.92 1005.00 1004.59 1004.42 1003.95 1004.20 1004.89 1005.51 1006.66 1007.59 1008.09 1010.66 1012.69 1013.77 1014.04 1013.94 1013.47 1013.28 1012.87 1012.64 1012.21 1011.98 1011.69 1011.50 1011.57 1011.73 1011.35 1010.93 1011.01 1011.09 1011.07 1010.86 1010.85 1010.78 1010.84 1011.02 1011.12 1011.09 1011.41 1011.66 1011.98 1012.16 1012.33 1012.67 1012.95 1013.23 1013.58
1005.01 1005.23 1005.49 1005.61 1005.62 1005.49 1005.11 1004.83 1004.51 1004.13 1003.77 1003.77 1003.93 1004.20 1005.15 1006.39 1007.44 1009.20 1011.87 1013.14 1015.05 1014.87 1015.03 1014.58 1013.87 1013.08 1012.84 1012.68 1012.64 1012.64 1012.32 1012.33 1012.13 1011.47 1011.42 1011.50 1011.51 1011.54 1011.66 1011.82 1011.76 1011.54 1011.72 1012.07 1012.25 1012.53 1012.96 1013.31 1013.56 1013.78 1014.19 1014.51 1015.00 1015.48
1006.29 1007.10 1007.35 1006.83 1006.85 1006.76 1006.14 1005.61 1004.93 1004.59 1004.35 1004.16 1004.32 1004.67 1005.08 1006.16 1008.40 1010.74 1012.36 1013.09 1014.04 1015.93 1015.69 1014.54 1013.90 1013.47 1013.25 1012.99 1013.14 1012.82 1012.47 1012.25 1011.80 1011.75 1012.27 1012.04 1012.12 1012.14 1012.29 1012.53 1012.69 1012.89 1012.91 1012.98 1013.53 1013.93 1014.40 1014.70 1015.09 1015.56 1016.07 1016.59 1017.13 1017.67
1007.54 1008.84 1009.13 1008.92 1008.78 1008.60 1007.97 1007.36 1006.72 1006.39 1006.17 1005.91 1006.01 1006.14 1006.02 1007.03 1009.51 1012.30 1013.63 1014.14 1014.15 1014.05 1014.42 1014.80 1014.73 1014.08 1013.64 1013.21 1012.91 1012.89 1012.57 1011.83 1011.56 1012.08 1013.00 1012.97 1012.74 1012.59 1013.01 1013.43 1013.83 1014.37 1014.41 1014.35 1014.51 1015.00 1015.69 1016.28 1016.79 1017.35 1018.10 1018.83 1019.36 1019.65
1009.35 1010.35 1010.51 1010.41 1010.59 1010.31 1009.46 1009.04 1008.76 1008.47 1008.41 1008.94 1009.10 1008.62 1008.12 1009.72 1012.27 1014.06 1014.82 1015.29 1015.31 1014.96 1014.69 1014.38 1014.07 1013.75 1013.59 1013.27 1012.83 1012.37 1012.24 1012.25 1012.48 1013.34 1013.88 1013.90 1013.94 1014.09 1014.22 1014.63 1015.13 1015.80 1015.71 1015.65 1015.95 1016.39 1016.98 1017.88 1018.68 1019.55 1020.28 1020.93 1021.41 1021.69
1011.55 1011.90 1011.97 1011.98 1011.75 1011.81 1011.41 1010.98 1011.00 1011.29 1011.52 1011.63 1011.50 1011.54 1012.02 1013.44 1014.77 1015.55 1015.73 1015.77 1015.70 1015.32 1014.79 1014.33 1014.11 1013.92 1013.48 1013.19 1013.13 1013.20 1013.45 1013.64 1013.85 1014.05 1014.46 1014.89 1015.29 1015.65 1015.90 1016.09 1016.42 1016.70 1016.97 1017.24 1017.52 1018.05 1018.80 1019.56 1020.27 1021.09 1021.73 1022.44 1023.23 1023.58
1012.74 1012.63 1012.63 1012.57 1012.62 1012.76 1013.05 1013.05 1012.86 1013.30 1013.62 1013.40 1013.26 1013.94 1014.86 1015.66 1016.26 1016.34 1016.06 1015.71 1015.24 1014.85 1014.46 1014.17 1014.06 1013.96 1013.92 1013.95 1014.06 1014.10 1014.05 1014.00 1014.23 1014.81 1015.36 1016.21 1016.79 1017.50 1017.37 1017.45 1017.73 1018.06 1018.48 1018.97 1019.67 1020.13 1020.66 1021.18 1021.85 1022.42 1023.08 1023.59 1024.19 1024.30
1013.84 1013.45 1013.04 1012.97 1013.31 1013.55 1013.74 1013.85 1013.75 1013.96 1014.21 1014.58 1014.71 1015.20 1015.70 1016.37 1016.62 1016.47 1016.19 1015.75 1015.37 1015.13 1014.94 1014.78 1014.58 1014.44 1014.57 1014.63 1014.86 1014.97 1015.15 1015.11 1015.09 1015.55 1016.30 1017.37 1018.27 1018.81 1018.94 1019.13 1019.42 1019.79 1020.13 1020.40 1020.93 1021.69 1022.16 1022.48 1022.95 1023.42 1024.00 1024.63 1025.07 1025.50
1014.31 1013.73 1013.29 1013.15 1013.57 1013.71 1013.76 1013.80 1013.97 1014.06 1014.04 1014.36 1014.53 1014.99 1015.72 1016.16 1016.51 1016.59 1016.48 1016.34 1016.01 1015.79 1015.49 1015.48 1015.45 1015.44 1015.46 1015.59 1015.73 1015.92 1016.48 1016.94 1016.85 1016.95 1017.53 1018.36 1019.07 1019.66 1020.12 1020.46 1020.70 1020.88 1021.17 1021.52 1022.07 1022.66 1023.22 1023.88 1024.55 1025.17 1025.71 1026.25 1026.62 1026.77
1014.05 1013.36 1013.02 1013.14 1013.36 1013.37 1013.47 1013.51 1013.42 1013.44 1013.68 1013.99 1014.47 1014.91 1015.54 1015.88 1016.72 1017.20 1017.61 1017.23 1016.88 1016.69 1016.78 1016.65 1016.54 1016.73 1016.68 1016.70 1016.76 1016.93 1017.41 1018.01 1018.46 1018.78 1019.08 1019.65 1020.27 1020.73 1021.06 1021.35 1021.58 1021.82 1022.16 1022.73 1023.40 1024.05 1024.60 1025.20 1025.95 1026.57 1027.14 1027.55 1027.79 1027.94
1013.88 1013.08 1012.84 1013.07 1013.17 1012.95 1012.80 1012.76 1012.60 1012.80 1013.01 1013.59 1014.22 1014.69 1015.29 1016.02 1017.40 1018.02 1018.05 1017.99 1017.91 1017.81 1017.82 1017.93 1017.97 1017.95 1018.00 1018.07 1018.28 1018.66 1019.01 1019.36 1019.68 1020.00 1020.29 1020.66 1021.17 1021.59 1022.10 1022.40 1022.57 1022.95 1023.42 1024.14 1024.88 1025.43 1025.97 1026.50 1027.13 1027.64 1028.07 1028.41 1028.71 1028.86
Wind_Speed
32 33 34 33 33 32 32 30 28 21 19 25 21 18 19 18 18 12 5 10 6 6 9 6 12 6 1 2 6 3 5 2 0 8 6 5 4 8 5 5 8 10 10 6 4 2 12 9 7 8 6 1 2 4
34 35 36 36 32 32 29 29 30 24 22 25 24 23 23 22 23 20 8 5 8 7 6 4 9 9 6 4 3 4 8 6 5 4 3 3 3 1 6 6 3 6 9 10 13 12 2 9 6 8 2 2 3 4
35 35 36 35 32 30 31 24 27 29 23 26 25 22 25 26 27 25 11 5 4 6 8 6 11 19 6 10 11 7 4 4 7 3 4 3 5 6 6 6 4 6 4 3 4 7 16 10 8 7 6 10 6 7
36 36 35 34 31 32 31 29 25 28 27 25 22 21 23 25 22 22 11 9 8 2 6 6 3 4 5 11 15 14 12 4 1 1 4 4 4 4 4 4 4 4 10 6 6 9 8 10 11 11 9 8 9 8
37 37 37 36 35 32 31 33 28 25 26 25 19 19 20 20 22 15 8 8 10 9 3 3 2 8 6 12 18 16 13 7 5 4 5 5 3 5 1 3 3 6 9 7 8 9 4 3 3 4 6 8 10 9
38 37 37 37 37 36 35 29 30 23 24 21 14 15 16 13 19 1 3 3 9 8 3 2 4 4 5 7 12 15 13 8 6 4 4 3 1 5 5 5 6 10 7 6 5 3 5 5 8 8 9 11 10 7
37 38 39 39 39 39 37 33 28 26 21 17 14 14 15 5 0 4 5 4 18 8 2 1 4 5 5 5 5 6 10 5 5 4 5 4 1 5 2 5 5 10 12 9 6 1 12 6 9 7 9 8 5 6
38 40 38 38 37 36 36 34 26 25 19 14 12 9 12 5 3 2 3 3 10 4 3 4 6 3 7 5 4 5 5 5 5 4 1 2 3 2 4 6 5 6 9 6 11 14 18 4 7 10 4 2 5 10
39 36 37 40 40 28 23 16 18 23 17 10 4 4 4 2 2 3 4 17 4 3 3 4 6 7 4 3 1 0 4 4 2 4 4 6 4 7 7 9 7 12 11 14 4 5 5 6 15 12 11 1 7 13
34 32 30 35 17 26 28 21 20 18 13 13 6 5 4 4 4 2 3 4 7 6 6 7 1 3 4 4 3 4 3 5 5 5 2 3 5 2 6 8 11 10 12 7 2 10 3 9 11 11 12 10 10 12
28 25 21 14 18 20 23 23 20 19 11 4 3 3 4 5 3 1 3 6 6 6 6 5 10 5 3 5 3 4 4 3 4 4 5 3 5 7 10 11 18 10 10 13 13 8 5 5 5 11 14 6 6 6
25 18 12 11 18 21 21 22 19 6 4 6 5 2 3 5 3 2 4 5 6 5 1 6 5 6 3 2 2 5 5 2 5 3 4 4 7 10 13 19 21 8 11 9 2 3 3 5 4 6 6 5 5 5
23 8 9 14 14 20 21 16 17 17 7 5 6 5 4 3 2 3 4 4 4 2 2 3 6 5 2 2 2 3 6 4 2 2 5 7 5 6 9 1 3 4 5 2 3 2 2 3 4 2 6 5 7 7
17 7 10 13 16 19 16 17 14 7 7 5 5 4 3 4 3 3 3 9 7 1 4 4 3 3 3 2 2 1 2 3 4 1 8 5 4 5 4 1 4 2 3 3 2 2 3 3 5 5 4 5 5 7
20 18 12 9 19 16 14 12 9 5 5 3 4 3 4 2 5 4 4 5 4 4 3 2 4 4 4 3 1 5 4 4 7 7 4 3 6 4 4 2 4 4 4 4 2 3 4 4 4 6 5 5 4 6
9 9 7 14 11 12 10 8 6 4 5 4 2 2 4 2 4 4 3 5 3 6 3 0 4 4 2 4 4 3 6 7 2 4 4 6 7 6 5 5 4 2 3 3 2 2 4 4 3 4 6 6 6 4
8 1 4 5 12 9 10 5 5 6 4 4 4 2 3 4 4 4 3 5 5 3 1 2 4 2 1 2 3 3 2 3 3 4 3 3 4 6 5 4 4 5 4 4 2 2 3 4 2 4 9 7 6 6
0 4 9 9 3 4 3 4 4 3 2 4 2 5 3 3 2 4 5 2 3 1 1 2 1 2 3 2 4 1 2 3 4 3 3 4 5 6 4 4 4 2 3 2 3 3 5 5 9 6 5 5 6 8
4 3 6 6 3 4 2 4 4 3 7 3 4 2 2 4 4 1 3 4 2 1 2 2 2 2 2 1 2 1 1 1 3 6 4 1 1 3 3 1 1 5 6 3 4 5 3 7 6 6 5 5 8 8
9 9 7 3 3 3 4 4 1 2 3 4 2 2 3 3 3 2 2 4 3 3 4 4 2 1 3 3 1 1 3 3 3 3 4 6 5 6 6 3 2 1 3 4 5 6 5 8 8 8 8 9 9 9
5 5 9 4 2 3 3 2 3 4 2 3 2 4 2 1 1 2 1 1 4 2 3 3 3 2 3 3 2 2 4 5 5 4 4 2 3 3 3 3 3 4 5 5 6 7 9 8 6 7 8 9 9 9
3 7 2 5 3 3 4 4 3 2 2 3 2 3 2 3 3 3 1 6 2 2 1 0 3 3 4 4 4 3 5 4 5 3 4 2 4 3 3 3 5 6 6 6 6 7 7 7 7 7 8 9 11 10
5 4 3 4 5 6 6 3 4 4 4 3 3 3 2 2 2 1 4 2 2 1 2 2 3 3 3 3 3 4 4 5 3 3 4 4 4 4 4 6 5 5 6 7 6 7 8 9 10 9 9 9 9 11
5 1 1 2 3 4 1 3 3 3 2 2 3 4 4 3 2 4 1 1 2 2 2 4 3 2 2 4 4 3 3 0 2 4 6 3 5 7 6 6 6 7 6 5 7 8 8 8 10 9 10 11 11 11
1 2 3 3 2 3 3 4 2 2 3 1 2 2 3 3 4 3 2 4 1 5 1 4 3 3 2 0 1 2 4 1 3 7 7 5 3 4 6 7 8 8 5 7 8 8 9 9 10 10 11 11 13 13
1 3 2 2 3 2 2 3 3 4 2 2 3 4 2 2 4 2 3 5 4 4 4 3 2 2 3 2 1 2 3 3 5 7 6 6 5 4 5 5 5 6 7 5 7 11 11 10 12 14 13 13 13 12
1 2 3 1 1 2 4 2 2 2 4 4 4 5 2 4 3 1 1 2 3 2 3 4 3 3 2 2 4 6 7 8 9 8 6 7 8 8 6 6 7 4 5 8 8 10 12 12 12 11 11 10 9 6
2 3 1 4 3 2 2 3 4 4 3 3 2 5 3 4 2 2 2 2 4 5 5 3 2 2 2 4 4 5 6 7 9 9 9 10 9 8 9 8 10 14 10 10 10 10 10 11 11 11 12 11 7 6
2 3 1 2 3 3 3 3 3 2 2 2 2 3 3 2 1 2 3 4 5 3 2 2 2 2 3 4 5 4 3 1 2 9 10 6 4 7 6 7 8 9 10 13 18 14 13 11 11 11 11 10 6 6
2 2 1 3 4 4 2 1 2 1 1 1 3 3 3 1 2 2 3 4 4 4 3 2 2 3 3 3 4 8 8 6 5 4 7 6 4 3 5 6 7 7 7 10 11 12 14 11 11 8 10 8 7 7
2 2 1 3 3 1 1 1 0 0 0 2 2 3 2 2 1 3 7 5 5 5 5 5 6 6 5 5 4 5 6 7 9 13 10 7 7 6 6 6 5 5 7 9 9 9 10 10 9 10 10 10 8 7
2 1 2 3 1 1 1 2 2 1 1 1 2 2 2 2 4 4 6 5 5 6 8 6 6 7 6 6 7 8 12 7 7 7 8 7 6 6 6 6 6 7 10 11 10 9 10 11 9 9 9 9 8 7
2 0 2 3 2 2 0 1 0 2 2 2 2 2 3 3 4 1 1 4 4 4 5 5 6 7 9 10 10 10 11 9 13 14 14 12 11 10 7 6 7 9 12 10 9 9 11 12 10 9 8 8 8 6
Wind_Direction
306 305 302 298 295 292 287 287 280 279 263 268 268 260 257 255 246 238 235 177 199 253 267 219 230 196 188 171 192 294 297 201 140 186 182 192 144 212 112 157 180 161 150 177 114 109 265 147 81 184 208 275 154 193
306 306 304 301 297 293 295 289 287 276 264 261 262 254 255 258 259 254 243 193 187 225 273 227 244 248 211 173 158 170 277 339 243 152 194 134 136 161 149 204 158 210 178 178 188 206 254 213 205 216 153 177 223 204
305 304 299 297 295 291 290 290 280 280 262 262 260 261 265 268 268 261 245 182 173 236 262 216 216 238 188 192 185 226 232 187 245 338 189 165 179 137 167 228 136 239 169 209 121 237 234 233 266 246 220 232 231 239
303 300 298 296 292 288 289 288 280 277 269 264 260 268 273 274 267 269 246 196 194 204 248 243 313 254 190 190 194 211 233 199 222 5 277 175 178 179 202 156 167 174 136 166 269 278 282 238 223 234 241 249 259 255
301 300 301 295 291 286 283 284 279 271 273 257 265 275 279 274 267 279 228 187 188 199 213 226 287 250 192 184 199 208 218 225 249 245 246 215 142 131 355 69 238 190 170 170 216 227 192 211 139 169 215 241 237 235
303 301 297 293 287 281 277 267 271 265 266 256 262 266 276 281 276 156 180 156 176 182 214 209 283 285 185 189 197 202 209 209 216 224 222 249 223 122 161 198 238 198 195 194 222 230 225 267 268 216 222 233 243 224
308 301 294 287 279 271 265 263 253 258 247 242 245 251 272 263 220 144 190 216 177 155 187 191 282 266 167 176 202 204 203 195 211 228 219 219 205 128 156 194 218 208 215 236 229 0 291 192 247 212 223 242 231 242
310 308 305 300 291 270 253 252 232 236 227 218 235 249 284 198 160 293 266 190 127 154 170 199 250 24 186 183 195 193 186 177 212 220 159 179 123 95 237 233 205 191 212 226 236 215 241 319 296 274 240 195 248 256
317 320 317 316 296 260 226 192 184 195 188 198 207 75 47 99 182 219 252 170 176 190 248 126 153 221 182 231 176 170 194 159 77 221 209 173 146 221 201 182 199 225 189 221 230 244 269 228 264 272 275 198 241 273
321 331 337 340 57 113 137 157 150 154 148 118 64 58 330 230 245 335 32 173 194 196 208 197 105 185 166 160 203 212 187 162 184 206 137 196 243 288 233 215 206 215 199 151 138 274 279 261 242 254 246 253 240 260
335 340 348 18 80 108 114 130 134 116 85 52 93 198 237 320 57 185 238 221 184 205 198 193 174 150 229 153 223 253 174 177 140 229 153 210 265 227 202 215 234 178 208 219 216 251 195 232 301 292 282 265 259 256
336 340 3 70 96 117 119 119 119 77 145 161 160 93 27 50 37 134 244 282 257 220 209 159 178 149 150 125 184 219 140 179 198 181 102 247 239 223 188 217 234 181 210 243 147 267 289 282 277 283 291 276 269 285
349 13 59 96 140 117 118 114 100 114 92 41 46 44 55 299 73 207 259 265 287 354 192 235 143 126 99 205 190 225 143 148 93 83 230 234 261 248 228 0 30 25 79 62 337 35 22 299 309 240 292 284 297 293
343 26 109 154 127 115 116 108 106 77 66 74 85 320 127 299 255 229 274 297 294 251 250 207 99 128 114 184 320 56 310 73 85 194 235 239 261 303 336 11 120 98 45 53 349 349 316 323 307 300 267 276 296 306
35 47 44 163 119 116 111 89 67 55 90 91 76 258 252 237 248 238 241 266 253 255 229 89 72 91 104 241 33 128 140 178 188 214 230 282 303 302 347 29 62 53 28 59 324 337 329 323 322 319 325 324 315 320
39 53 69 102 114 107 77 43 32 64 46 67 25 11 292 6 301 350 304 284 270 331 351 61 169 147 202 143 161 192 140 189 213 251 296 334 346 356 344 357 20 16 36 10 2 356 330 328 322 311 326 0 4 2
22 48 141 112 100 76 52 70 50 45 115 40 286 176 201 244 228 229 218 279 302 304 23 353 45 176 158 40 60 57 128 266 276 298 300 317 297 305 337 339 12 28 27 13 356 3 10 333 355 45 41 359 3 17
286 270 177 150 89 42 23 65 88 83 298 248 212 255 224 235 179 277 264 263 14 2 287 26 326 23 355 69 75 15 14 279 211 222 257 297 324 344 359 351 348 359 77 59 24 27 20 26 52 37 10 347 37 33
253 257 191 187 114 94 68 317 107 205 228 218 269 270 200 266 257 199 264 291 272 77 62 34 78 63 33 350 309 29 100 200 294 309 311 282 64 358 340 14 131 55 59 60 49 58 42 46 52 42 28 31 55 40
251 250 244 212 90 70 343 286 137 224 247 226 98 208 199 204 283 15 319 329 0 24 27 38 19 59 353 341 7 323 303 310 300 327 357 352 5 15 18 5 32 60 55 37 54 50 54 55 40 41 48 48 57 49
226 229 234 189 69 121 185 234 271 218 219 209 177 143 233 117 303 290 337 53 47 354 30 48 305 297 329 308 304 234 223 179 188 195 199 310 359 25 348 4 36 44 56 40 57 52 54 58 50 45 51 51 54 57
215 174 161 186 184 228 227 210 206 274 229 219 160 189 147 137 194 223 158 55 36 310 308 58 287 317 350 351 313 328 318 6 10 10 17 39 42 13 8 15 50 59 56 51 58 64 63 56 60 60 63 64 58 58
165 189 182 180 203 221 249 151 198 206 231 217 147 176 200 112 213 36 73 133 210 303 284 291 287 269 267 309 5 3 10 24 11 13 43 41 50 46 51 43 33 60 78 55 59 67 69 64 63 70 68 68 69 65
4 18 231 229 241 261 322 223 211 241 238 210 196 184 123 147 134 57 148 247 172 329 337 290 274 320 5 14 23 352 343 6 273 54 37 53 62 52 50 51 45 55 57 79 73 71 68 69 72 71 70 73 67 67
187 337 13 282 35 323 299 317 267 224 259 201 212 147 142 115 83 49 294 292 140 128 271 321 352 42 98 10 339 332 314 259 71 74 25 18 66 83 68 60 53 39 40 82 80 84 76 74 71 70 67 69 74 69
162 348 32 323 302 341 339 287 354 343 308 316 39 340 306 101 78 63 351 329 334 352 17 28 342 318 47 16 15 349 319 13 77 74 38 20 22 48 70 78 74 47 17 60 94 93 87 81 80 78 71 63 68 82
125 348 326 350 111 316 297 349 339 326 2 3 0 339 327 79 85 23 358 20 315 323 304 307 325 356 1 33 66 52 51 57 69 79 76 54 50 45 51 80 76 58 51 67 79 91 97 92 87 84 84 65 46 50
67 27 357 319 39 3 332 342 7 27 336 2 242 27 64 30 87 346 304 319 287 285 272 249 231 269 351 19 30 77 82 88 94 93 86 67 57 58 59 65 69 71 68 63 72 74 82 91 93 92 88 85 70 20
40 328 314 37 56 40 38 355 348 31 326 318 20 76 92 78 326 292 289 297 291 277 7 56 72 97 71 59 48 38 27 36 97 101 88 87 73 35 33 71 79 79 80 83 81 82 82 87 91 92 90 90 83 69
357 349 36 66 51 350 340 320 355 31 62 89 117 116 88 71 323 298 327 343 10 14 25 27 21 53 68 74 74 59 35 27 45 94 114 114 109 93 66 71 75 74 83 91 93 89 83 83 85 69 74 71 69 74
287 324 80 72 96 224 221 195 272 284 164 61 43 75 106 152 237 28 24 358 19 25 41 59 57 41 57 54 53 82 77 34 62 73 80 89 90 84 84 81 78 84 89 91 91 91 93 82 81 87 83 82 67 76
300 257 125 102 236 208 130 228 217 126 89 64 59 111 127 114 56 18 1 352 29 42 34 40 51 49 46 60 64 68 75 82 75 79 82 91 84 81 85 83 81 90 90 87 86 88 87 94 97 98 98 89 83 77
258 259 80 108 132 197 151 45 288 95 76 82 63 61 45 55 89 318 354 24 29 32 45 47 50 52 56 64 71 76 76 83 90 91 91 92 95 94 88 81 84 88 91 92 90 96 97 102 100 98 95 94 87 76